Flag for Germany Weather past 2 weeks in Bietigheim-Bissingen, Baden-Württemberg, Germany

Now
33 °F

Light snow. Overcast.


Feels Like: 33 °F
Forecast: 29 / 37 °F
Wind: 2 mph from South

Location: Stuttgart-Echterdingen

Current Time: Feb 1, 2015 at 10:15:52 PM

Latest Report: Feb 1, 2015 at 9:00 PM


Visibility: 13 mi

Pressure: 29.44 "Hg

Humidity: 88%

Dew point: 29 °F

Location of Bietigheim-BissingenLocation

Historic Weather in Bietigheim-Bissingen — Graph

°F

Bietigheim-Bissingen temperature yesterday

Maximum temperature yesterday: 37 °F (at 4:00 PM)
Minimum temperature yesterday: 31 °F (at 1:00 AM)
Average temperature yesterday: 33 °F

Past Weeks' High & Low Weather Summary

 TemperatureHumidityPressure
High39 °F (Jan 29, 2:00 PM)99% (Jan 18, 7:00 AM)30.47 "Hg (Jan 18, 7:00 AM)
Low27 °F (Jan 19, 6:00 AM)65% (Jan 31, 4:00 PM)28.76 "Hg (Jan 30, 2:00 AM)
Average33 °F87%29.86 "Hg
* Reported Jan 17 9:00 PM — Feb 1 9:00 PM, Bietigheim-Bissingen, Weather by CustomWeather, © 2014

Note: Actual official high and low records may vary slightly from our data, if they occured in-between our weather recording intervals... More about our weather records

Advertising

Bietigheim-Bissingen weather history for previous 24 hours

 ConditionsComfort  
Time TempWeatherWind HumidityBarometerVisibility
9:00 PM
Feb 1
33 °FLight snow. Overcast.2 mph88%29.44 "Hg12 mi
8:00 PM33 °FLight snow. Overcast.3 mph87%29.44 "Hg10 mi
7:00 PM33 °FLow clouds.5 mph84%29.41 "Hg12 mi
6:00 PM33 °FLow clouds.6 mph85%29.41 "Hg9 mi
5:00 PM33 °FLight snow. Low clouds.5 mph94%29.38 "Hg3 mi
3:00 PM32 °FSnow flurries. Overcast.2 mph91%29.35 "Hg3 mi
2:00 PM32 °FSnow showers. Low clouds.3 mph92%29.35 "Hg1 mi
1:00 PM34 °FPartly sunny.1 mph81%29.32 "Hg19 mi
12:00 PM33 °FSnow flurries. Low clouds.3 mph82%29.32 "Hg11 mi
11:00 AM32 °FPartly sunny.1 mph88%29.32 "Hg16 mi
9:00 AM31 °FPartly sunny.3 mph88%29.26 "Hg17 mi
8:00 AM31 °FPartly sunny.2 mph88%29.23 "Hg17 mi
7:00 AM32 °FLight snow. Overcast.3 mph86%29.21 "Hg16 mi
6:00 AM32 °FLight snow. Overcast.1 mph76%29.21 "Hg5 mi
5:00 AM31 °FPassing clouds.1 mph78%29.18 "Hg37 mi
3:00 AM33 °FPassing clouds.2 mph80%29.21 "Hg31 mi
2:00 AM31 °FPassing clouds.1 mph90%29.21 "Hg19 mi
1:00 AM31 °FPassing clouds.2 mph90%29.21 "Hg19 mi
12:00 AM32 °FPassing clouds.2 mph89%29.21 "Hg19 mi
11:00 PM
Jan 31
32 °FPassing clouds.2 mph88%29.21 "Hg22 mi
Weather by CustomWeather, © 2014

See weather overviewHow to use our weather pages